This is the latest recevied weather packets stored in our database for station/object DC5DM-13. If no packets are shown the sender has not sent any weather packets the latest 10 day(s).
| Time | Temp. | Humidity | Pressure | Rain* | Wind** | Luminosity | Snow |
|---|---|---|---|---|---|---|---|
| 1777375278 | 18.89° C | 38% | 1021 hPa | 0 mm | - | - | - |
| 1777374647 | 18.89° C | 36% | 1021 hPa | 0 mm | - | - | - |
| 1777374078 | 18.89° C | 37% | 1021 hPa | 0 mm | - | - | - |
| 1777373446 | 17.78° C | 39% | 1021.1 hPa | 0 mm | - | - | - |
| 1777372877 | 18.33° C | 40% | 1020.9 hPa | 0 mm | - | - | - |
| 1777372246 | 17.78° C | 40% | 1021 hPa | 0 mm | - | - | - |
| 1777371677 | 17.22° C | 41% | 1021 hPa | 0 mm | - | - | - |
| 1777371047 | 17.22° C | 41% | 1021 hPa | 0 mm | - | - | - |
| 1777370477 | 16.67° C | 42% | 1021 hPa | 0 mm | - | - | - |
| 1777369846 | 17.22° C | 44% | 1021 hPa | 0 mm | - | - | - |
| 1777369277 | 16.67° C | 45% | 1021.2 hPa | 0 mm | - | - | - |
| 1777368646 | 17.22° C | 44% | 1021.1 hPa | 0 mm | - | - | - |
| 1777368078 | 16.67° C | 43% | 1021.2 hPa | 0 mm | - | - | - |
| 1777367446 | 16.67° C | 44% | 1021.1 hPa | 0 mm | - | - | - |
| 1777366877 | 16.11° C | 45% | 1021.1 hPa | 0 mm | - | - | - |
| 1777366241 | 15.56° C | 46% | 1021 hPa | 0 mm | - | - | - |
| 1777365670 | 15° C | 47% | 1021 hPa | 0 mm | - | - | - |
| 1777365040 | 15° C | 46% | 1021 hPa | 0 mm | - | - | - |
| 1777364470 | 14.44° C | 49% | 1020.8 hPa | 0 mm | - | - | - |
| 1777363839 | 14.44° C | 49% | 1020.6 hPa | 0 mm | - | - | - |
| 1777363264 | 13.89° C | 50% | 1020.7 hPa | 0 mm | - | - | - |
| 1777362633 | 14.44° C | 51% | 1020.6 hPa | 0 mm | - | - | - |
| 1777362063 | 13.33° C | 52% | 1020.5 hPa | 0 mm | - | - | - |
| 1777361432 | 13.33° C | 52% | 1020.5 hPa | 0 mm | - | - | - |
| 1777360857 | 13.33° C | 53% | 1020.5 hPa | 0 mm | - | - | - |
* Rain latest hour (hover to see other rain measurements)
** Current wind speed in m/s (hover to see current wind gust speed)